Location: Melbourne
(37.8170°S, 144.9670°E)
Time: 17:33:05
(UTC+10:00)

ISS - All Passes

Search period start: 26 April 2018 00:00
Search period end: 06 May 2018 00:00
Orbit: 403 x 406 km, 51.6° (Epoch: 26 April)

Date Brightness Start Highest point End Pass type
(mag) Time Alt. Az. Time Alt. Az. Time Alt. Az.
26 Apr - 00:05:47 10° S 00:06:49 11° SSE 00:07:52 10° SE night (unlit)
26 Apr - 01:40:49 10° SW 01:44:01 41° SE 01:47:12 10° ENE night (unlit)
26 Apr - 03:17:56 10° W 03:20:17 18° NW 03:22:37 10° N night (unlit)
26 Apr - 18:19:26 10° NNW 18:22:26 32° NE 18:25:29 10° ESE visible
26 Apr - 19:56:02 10° W 19:58:56 26° SSW 20:01:51 10° SSE visible
27 Apr - 00:48:48 10° SSW 00:51:39 25° SSE 00:54:28 10° E night (unlit)
27 Apr - 02:25:06 10° WSW 02:28:11 36° NW 02:31:15 10° NNE night (unlit)
27 Apr - 17:28:10 10° N 17:30:21 16° NE 17:32:32 10° E daylight
27 Apr - 19:03:20 10° WNW 19:06:34 45° SW 19:09:48 10° SE visible
27 Apr - 20:42:29 10° SW 20:43:43 12° SSW 20:44:58 10° S visible
27 Apr - 23:56:53 10° SSW 23:59:10 17° SSE 00:01:25 10° ESE night (unlit)
28 Apr - 01:32:39 10° SW 01:36:00 78° NW 01:39:17 10° NE night (unlit)
28 Apr - 18:10:55 10° NW 18:14:14 89° N 18:17:36 10° SE visible
28 Apr - 19:49:01 10° WSW 19:51:08 16° SSW 19:53:16 10° SSE visible
28 Apr - 23:05:09 10° S 23:06:35 12° SSE 23:08:02 10° SE night (unlit)
29 Apr - 00:40:25 10° SW 00:43:42 52° SE 00:46:57 10° ENE night (unlit)
29 Apr - 02:17:59 10° W 02:19:51 14° NW 02:21:42 10° NNW night (unlit)
29 Apr - 17:18:51 10° NNW 17:22:00 42° NE 17:25:12 10° ESE daylight
29 Apr - 18:55:53 10° W 18:58:37 23° SSW 19:01:22 10° SSE visible
29 Apr - 23:48:19 10° SSW 23:51:18 29° SSE 23:54:16 10° E night (unlit)
30 Apr - 01:24:50 10° WSW 01:27:44 28° NW 01:30:38 10° NNE night (unlit)
30 Apr - 16:27:17 10° N 16:29:51 21° NE 16:32:27 10° E daylight
30 Apr - 18:03:02 10° WNW 18:06:10 37° SSW 18:09:19 10° SE visible
30 Apr - 19:42:39 10° SSW 19:43:25 11° SSW 19:44:12 10° S visible
30 Apr - 22:56:19 10° SSW 22:58:49 19° SSE 23:01:18 10° ESE night (unlit)
01 May - 00:32:15 10° WSW 00:35:33 59° NW 00:38:48 10° NE night (unlit)
01 May - 15:37:08 10° NE 15:37:46 10° NE 15:38:23 10° ENE daylight
01 May - 17:10:28 10° WNW 17:13:47 71° SW 17:17:08 10° SE daylight
01 May - 18:48:55 10° SW 18:50:46 14° SSW 18:52:39 10° SSE visible
01 May - 22:04:27 10° SSW 22:06:14 14° SSE 22:07:59 10° SE night (unlit)
01 May - 23:39:55 10° SW 23:43:15 66° SE 23:46:33 10° ENE night (unlit)
02 May - 01:18:17 10° WNW 01:19:18 11° NW 01:20:19 10° NW night (unlit)
02 May - 16:18:14 10° NW 16:21:29 55° NE 16:24:47 10° ESE daylight
02 May - 17:55:39 10° WSW 17:58:11 20° SSW 18:00:45 10° SSE visible
02 May - 21:13:00 10° S 21:13:34 10° SSE 21:14:08 10° SSE night (unlit)
02 May - 22:47:43 10° SW 22:50:51 35° SSE 22:53:56 10° ENE night (unlit)
03 May - 00:24:31 10° WSW 00:27:11 22° NW 00:29:48 10° N night (unlit)
03 May - 15:26:26 10° N 15:29:15 26° NE 15:32:07 10° ESE daylight
03 May - 17:02:39 10° W 17:05:40 31° SSW 17:08:42 10° SSE daylight
03 May - 21:55:39 10° SSW 21:58:21 22° SSE 22:01:01 10° E night (unlit)
03 May - 23:31:46 10° WSW 23:34:58 45° NW 23:38:09 10° NNE night (unlit)
04 May - 14:35:25 10° NNE 14:37:06 13° NE 14:38:48 10° E daylight
04 May - 16:09:57 10° WNW 16:13:13 56° SW 16:16:32 10° SE daylight
04 May - 17:48:45 10° SW 17:50:18 13° SSW 17:51:51 10° S daylight
04 May - 21:03:42 10° SSW 21:05:44 15° SSE 21:07:47 10° ESE night (unlit)
04 May - 22:39:18 10° SW 22:42:40 85° SE 22:45:59 10° NE night (unlit)
05 May - 15:17:33 10° NW 15:20:51 72° NE 15:24:11 10° SE daylight
05 May - 16:55:19 10° WSW 16:57:39 17° SSW 17:00:00 10° SSE daylight
05 May - 20:11:57 10° S 20:13:04 11° SSE 20:14:11 10° SE visible
05 May - 21:47:02 10° SW 21:50:15 42° SE 21:53:27 10° ENE night (unlit)
05 May - 23:24:11 10° W 23:26:29 18° NW 23:28:47 10° N night (unlit)
